SCP
0 0 0 0 0 0 0 0 0 0 0 0 0 0 0 0 0 0 0 0 0 0
0 0 0 0 0 0 0 0 0 0 0 0 0 0 0 0 0 0 0 0 0 0
0 0 0 0 0 0 0 0 0 0 0 0 0 0 0 0 0 0 0 0 0 0
0 0 0 0 0 0 0 0 0 0 0 0 0 0 0 0 0 0 0 0 0 0
0 0 0 0 0 0 0 0 0 0 0 0 0 0 0 0 0 0 0 0 0 0
0 0 0 0 0 0 0 0 0 0 0 0 0 0 0 0 0 0 0 0 0 0
0 0 0 0 0 0 0 0 0 0 0 0 0 0 0 0 0 0 0 0 0 0
0 0 0 0 0 0 0 0 0 0 0 0 0 0 0 0 0 0 0 0 0 0
0 0 0 0 0 0 0 0 0 0 0 0 0 0 0 0 0 0 0 0 0 0
0 0 0 0 0 0 0 0 0 0 0 0 0 0 0 0 0 0 0 0 0 0
0 0 0 0 0 0 0 0 0 0 0 0 0 0 0 0 0 0 0 0 0 0
0 0 0 0 0 0 0 0 0 0 0 0 0 0 0 0 0 0 0 0 0 0
0 0 0 0 0 0 0 0 0 0 0 0 0 0 0 0 0 0 0 0 0 0
0 0 0 0 0 0 0 0 0 0 0 0 0 0 0 0 0 0 0 0 0 0
Wind_Speed_500mb
20 25 29 34 38 42 44 44 43 42 43 42 41 42 45 49 51 56 55 56 58 61
22 27 33 36 39 42 44 44 45 46 48 49 50 50 50 54 56 58 61 63 66 69
27 31 33 37 40 43 45 47 49 52 53 56 58 59 59 60 60 63 64 68 71 72
36 41 44 46 46 50 51 52 55 57 59 63 66 66 67 66 65 65 65 66 67 67
40 42 45 48 51 55 59 61 64 65 66 68 69 71 72 72 70 70 68 66 66 63
39 44 47 50 54 57 61 65 68 71 73 75 75 75 74 74 73 71 69 67 67 64
30 33 37 40 44 49 54 60 64 69 73 77 79 79 78 77 76 74 71 70 69 67
36 38 39 42 45 48 51 53 56 59 64 71 76 79 79 77 75 75 74 73 72 70
53 55 54 55 56 58 60 62 64 65 67 69 68 72 77 79 76 76 74 75 76 73
64 67 68 69 70 71 70 70 71 72 73 74 75 70 69 71 71 74 75 73 72 71
69 71 73 73 73 73 74 75 74 74 74 77 77 74 75 68 67 72 73 73 73 71
72 76 78 80 81 81 82 82 81 80 80 80 80 75 73 69 69 72 72 70 70 71
77 79 82 83 83 83 84 86 86 86 83 83 82 77 70 72 67 77 74 72 69 67
62 64 66 69 71 74 77 79 81 84 84 84 81 79 70 64 64 76 77 75 72 67
Wind_Direction_500mb
293 291 290 288 287 285 285 284 284 288 289 290 291 286 282 279 279 280 280 273 269 271
300 300 299 296 291 290 289 286 285 286 288 291 291 288 284 281 280 277 275 274 273 273
303 299 295 295 297 298 297 293 290 291 293 293 291 291 290 289 286 284 282 278 275 273
300 302 302 301 302 303 302 300 297 295 294 292 292 292 290 288 287 285 284 280 279 275
308 305 302 299 299 298 296 295 292 290 290 290 290 290 289 288 287 286 283 280 277 274
312 307 304 304 303 301 299 297 295 293 291 290 290 288 287 285 284 283 281 278 274 271
318 315 314 312 307 304 302 300 298 295 294 292 290 288 286 284 283 282 280 276 272 269
313 310 309 307 304 304 303 302 301 301 299 296 293 291 288 287 285 284 281 278 274 271
314 314 314 312 311 309 306 304 302 301 299 296 294 293 291 289 287 284 281 279 277 274
311 310 311 311 311 311 310 308 305 304 302 300 296 290 286 286 284 281 280 278 278 275
305 306 307 308 309 309 308 307 306 304 302 300 298 294 291 285 282 279 276 277 277 275
307 308 309 309 310 310 308 307 306 304 302 299 298 296 291 287 281 278 274 271 268 268
307 306 306 307 307 307 306 305 305 304 303 300 298 296 293 288 278 273 272 269 264 262
307 307 307 308 308 308 307 306 305 304 304 304 303 300 298 291 279 270 265 264 263 261
Wind_Speed_850mb
20 25 29 34 38 42 44 44 43 42 43 42 41 42 45 49 51 56 55 56 58 61
22 27 33 36 39 42 44 44 45 46 48 49 50 50 50 54 56 58 61 63 66 69
27 31 33 37 40 43 45 47 49 52 53 56 58 59 59 60 60 63 64 68 71 72
36 41 44 46 46 50 51 52 55 57 59 63 66 66 67 66 65 65 65 66 67 67
40 42 45 48 51 55 59 61 64 65 66 68 69 71 72 72 70 70 68 66 66 63
39 44 47 50 54 57 61 65 68 71 73 75 75 75 74 74 73 71 69 67 67 64
30 33 37 40 44 49 54 60 64 69 73 77 79 79 78 77 76 74 71 70 69 67
36 38 39 42 45 48 51 53 56 59 64 71 76 79 79 77 75 75 74 73 72 70
53 55 54 55 56 58 60 62 64 65 67 69 68 72 77 79 76 76 74 75 76 73
64 67 68 69 70 71 70 70 71 72 73 74 75 70 69 71 71 74 75 73 72 71
69 71 73 73 73 73 74 75 74 74 74 77 77 74 75 68 67 72 73 73 73 71
72 76 78 80 81 81 82 82 81 80 80 80 80 75 73 69 69 72 72 70 70 71
77 79 82 83 83 83 84 86 86 86 83 83 82 77 70 72 67 77 74 72 69 67
62 64 66 69 71 74 77 79 81 84 84 84 81 79 70 64 64 76 77 75 72 67
Wind_Direction_850mb
293 291 290 288 287 285 285 284 284 288 289 290 291 286 282 279 279 280 280 273 269 271
300 300 299 296 291 290 289 286 285 286 288 291 291 288 284 281 280 277 275 274 273 273
303 299 295 295 297 298 297 293 290 291 293 293 291 291 290 289 286 284 282 278 275 273
300 302 302 301 302 303 302 300 297 295 294 292 292 292 290 288 287 285 284 280 279 275
308 305 302 299 299 298 296 295 292 290 290 290 290 290 289 288 287 286 283 280 277 274
312 307 304 304 303 301 299 297 295 293 291 290 290 288 287 285 284 283 281 278 274 271
318 315 314 312 307 304 302 300 298 295 294 292 290 288 286 284 283 282 280 276 272 269
313 310 309 307 304 304 303 302 301 301 299 296 293 291 288 287 285 284 281 278 274 271
314 314 314 312 311 309 306 304 302 301 299 296 294 293 291 289 287 284 281 279 277 274
311 310 311 311 311 311 310 308 305 304 302 300 296 290 286 286 284 281 280 278 278 275
305 306 307 308 309 309 308 307 306 304 302 300 298 294 291 285 282 279 276 277 277 275
307 308 309 309 310 310 308 307 306 304 302 299 298 296 291 287 281 278 274 271 268 268
307 306 306 307 307 307 306 305 305 304 303 300 298 296 293 288 278 273 272 269 264 262
307 307 307 308 308 308 307 306 305 304 304 304 303 300 298 291 279 270 265 264 263 261